Year,Month,Day,Hour,Minute,Value (Times are PST for temperature in C)
2010,08,14,00,00,21.10
2010,08,14,00,01,21.20
2010,08,14,00,02,21.20
2010,08,14,00,03,21.20
2010,08,14,00,04,21.30
2010,08,14,00,05,21.30
2010,08,14,00,06,21.30
2010,08,14,00,07,21.30
2010,08,14,00,08,21.30
2010,08,14,00,09,21.30
2010,08,14,00,10,21.30
2010,08,14,00,11,21.30
2010,08,14,00,12,21.30
2010,08,14,00,13,21.30
2010,08,14,00,14,21.30
2010,08,14,00,15,21.20
2010,08,14,00,16,21.20
2010,08,14,00,17,21.10
2010,08,14,00,18,21.00
2010,08,14,00,19,21.00
2010,08,14,00,20,20.90
2010,08,14,00,21,20.90
2010,08,14,00,22,20.90
2010,08,14,00,23,20.90
2010,08,14,00,24,20.90
2010,08,14,00,25,20.90
2010,08,14,00,26,20.80
2010,08,14,00,27,20.80
2010,08,14,00,28,20.70
2010,08,14,00,29,20.70
2010,08,14,00,30,20.60
2010,08,14,00,31,20.60
2010,08,14,00,32,20.60
2010,08,14,00,33,20.50
2010,08,14,00,34,20.40
2010,08,14,00,35,20.40
2010,08,14,00,36,20.40
2010,08,14,00,37,20.30
2010,08,14,00,38,20.30
2010,08,14,00,39,20.30
2010,08,14,00,40,20.20
2010,08,14,00,41,20.20
2010,08,14,00,42,20.10
2010,08,14,00,43,20.10
2010,08,14,00,44,20.00
2010,08,14,00,45,20.00
2010,08,14,00,46,20.00
2010,08,14,00,47,20.00
2010,08,14,00,48,19.90
2010,08,14,00,49,20.00
2010,08,14,00,50,20.00
2010,08,14,00,51,20.00
2010,08,14,00,52,19.90
2010,08,14,00,53,19.90
2010,08,14,00,54,19.90
2010,08,14,00,55,19.80
2010,08,14,00,56,19.70
2010,08,14,00,57,19.50
2010,08,14,00,58,19.40
2010,08,14,00,59,19.20
2010,08,14,01,00,19.10
2010,08,14,01,01,19.00
2010,08,14,01,02,18.90
2010,08,14,01,03,18.90
2010,08,14,01,04,18.80
2010,08,14,01,05,18.80
2010,08,14,01,06,18.80
2010,08,14,01,07,18.80
2010,08,14,01,08,18.80
2010,08,14,01,09,18.80
2010,08,14,01,10,18.80
2010,08,14,01,11,18.80
2010,08,14,01,12,18.80
2010,08,14,01,13,18.90
2010,08,14,01,14,18.90
2010,08,14,01,15,18.90
2010,08,14,01,16,18.90
2010,08,14,01,17,18.90
2010,08,14,01,18,18.90
2010,08,14,01,19,18.80
2010,08,14,01,20,18.80
2010,08,14,01,21,18.80
2010,08,14,01,22,18.80
2010,08,14,01,23,18.80
2010,08,14,01,24,18.80
2010,08,14,01,25,18.70
2010,08,14,01,26,18.70
2010,08,14,01,27,18.80
2010,08,14,01,28,18.80
2010,08,14,01,29,18.80
2010,08,14,01,30,18.90
2010,08,14,01,31,18.90
2010,08,14,01,32,18.90
2010,08,14,01,33,18.90
2010,08,14,01,34,18.90
2010,08,14,01,35,18.90
2010,08,14,01,36,18.90
2010,08,14,01,37,18.90
2010,08,14,01,38,18.90
2010,08,14,01,39,18.90
2010,08,14,01,40,18.90
2010,08,14,01,41,18.90
2010,08,14,01,42,18.80
2010,08,14,01,43,18.80
2010,08,14,01,44,18.80
2010,08,14,01,45,18.80
2010,08,14,01,46,18.80
2010,08,14,01,47,18.80
2010,08,14,01,48,18.70
2010,08,14,01,49,18.70
2010,08,14,01,50,18.70
2010,08,14,01,51,18.70
2010,08,14,01,52,18.70
2010,08,14,01,53,18.70
2010,08,14,01,54,18.60
2010,08,14,01,55,18.60
2010,08,14,01,56,18.50
2010,08,14,01,57,18.50
2010,08,14,01,58,18.50
2010,08,14,01,59,18.40
2010,08,14,02,00,18.40
2010,08,14,02,01,18.40
2010,08,14,02,02,18.30
2010,08,14,02,03,18.30
2010,08,14,02,04,18.30
2010,08,14,02,05,18.20
2010,08,14,02,06,18.20
2010,08,14,02,07,18.10
2010,08,14,02,08,18.10
2010,08,14,02,09,18.00
2010,08,14,02,10,18.00
2010,08,14,02,11,17.90
2010,08,14,02,12,17.90
2010,08,14,02,13,17.90
2010,08,14,02,14,17.80
2010,08,14,02,15,17.80
2010,08,14,02,16,17.70
2010,08,14,02,17,17.70
2010,08,14,02,18,17.60
2010,08,14,02,19,17.60
2010,08,14,02,20,17.60
2010,08,14,02,21,17.60
2010,08,14,02,22,17.50
2010,08,14,02,23,17.50
2010,08,14,02,24,17.50
2010,08,14,02,25,17.50
2010,08,14,02,26,17.50
2010,08,14,02,27,17.50
2010,08,14,02,28,17.50
2010,08,14,02,29,17.50
2010,08,14,02,30,17.50
2010,08,14,02,31,17.60
2010,08,14,02,32,17.70
2010,08,14,02,33,17.70
2010,08,14,02,34,17.70
2010,08,14,02,35,17.80
2010,08,14,02,36,17.80
2010,08,14,02,37,17.80
2010,08,14,02,38,17.70
2010,08,14,02,39,17.70
2010,08,14,02,40,17.70
2010,08,14,02,41,17.70
2010,08,14,02,42,17.70
2010,08,14,02,43,17.70
2010,08,14,02,44,17.70
2010,08,14,02,45,17.60
2010,08,14,02,46,17.60
2010,08,14,02,47,17.60
2010,08,14,02,48,17.60
2010,08,14,02,49,17.50
2010,08,14,02,50,17.50
2010,08,14,02,51,17.50
2010,08,14,02,52,17.50
2010,08,14,02,53,17.50
2010,08,14,02,54,17.50
2010,08,14,02,55,17.50
2010,08,14,02,56,17.50
2010,08,14,02,57,17.50
2010,08,14,02,58,17.60
2010,08,14,02,59,17.60
2010,08,14,03,00,17.60
2010,08,14,03,01,17.60
2010,08,14,03,02,17.70
2010,08,14,03,03,17.70
2010,08,14,03,04,17.70
2010,08,14,03,05,17.70
2010,08,14,03,06,17.70
2010,08,14,03,07,17.70
2010,08,14,03,08,17.70
2010,08,14,03,09,17.70
2010,08,14,03,10,17.60
2010,08,14,03,11,17.60
2010,08,14,03,12,17.60
2010,08,14,03,13,17.60
2010,08,14,03,14,17.60
2010,08,14,03,15,17.60
2010,08,14,03,16,17.60
2010,08,14,03,17,17.60
2010,08,14,03,18,17.60
2010,08,14,03,19,17.60
2010,08,14,03,20,17.60
2010,08,14,03,21,17.60
2010,08,14,03,22,17.60
2010,08,14,03,23,17.50
2010,08,14,03,24,17.50
2010,08,14,03,25,17.50
2010,08,14,03,26,17.50
2010,08,14,03,27,17.40
2010,08,14,03,28,17.40
2010,08,14,03,29,17.40
2010,08,14,03,30,17.40
2010,08,14,03,34,17.40
2010,08,14,03,35,17.40
2010,08,14,03,36,17.40
2010,08,14,03,37,17.40
2010,08,14,03,38,17.40
2010,08,14,03,39,17.40
2010,08,14,03,40,17.40
2010,08,14,03,41,17.40
2010,08,14,03,42,17.40
2010,08,14,03,43,17.40
2010,08,14,03,44,17.40
2010,08,14,03,45,17.30
2010,08,14,03,46,17.30
2010,08,14,03,47,17.30
2010,08,14,03,48,17.30
2010,08,14,03,49,17.30
2010,08,14,03,50,17.40
2010,08,14,03,51,17.40
2010,08,14,03,52,17.40
2010,08,14,03,53,17.40
2010,08,14,03,54,17.40
2010,08,14,03,55,17.40
2010,08,14,03,56,17.40
2010,08,14,03,57,17.40
2010,08,14,03,58,17.40
2010,08,14,03,59,17.40
2010,08,14,04,00,17.40
2010,08,14,04,01,17.40
2010,08,14,04,02,17.50
2010,08,14,04,03,17.50
2010,08,14,04,04,17.50
2010,08,14,04,05,17.50
2010,08,14,04,06,17.50
2010,08,14,04,07,17.60
2010,08,14,04,08,17.60
2010,08,14,04,09,17.70
2010,08,14,04,10,17.70
2010,08,14,04,11,17.70
2010,08,14,04,12,17.60
2010,08,14,04,13,17.60
2010,08,14,04,14,17.60
2010,08,14,04,15,17.50
2010,08,14,04,16,17.50
2010,08,14,04,17,17.40
2010,08,14,04,18,17.40
2010,08,14,04,19,17.40
2010,08,14,04,20,17.30
2010,08,14,04,21,17.30
2010,08,14,04,22,17.30
2010,08,14,04,23,17.30
2010,08,14,04,24,17.30
2010,08,14,04,25,17.30
2010,08,14,04,26,17.30
2010,08,14,04,27,17.30
2010,08,14,04,28,17.30
2010,08,14,04,29,17.30
2010,08,14,04,30,17.30
2010,08,14,04,31,17.30
2010,08,14,04,32,17.30
2010,08,14,04,33,17.30
2010,08,14,04,34,17.30
2010,08,14,04,35,17.30
2010,08,14,04,36,17.30
2010,08,14,04,37,17.30
2010,08,14,04,38,17.30
2010,08,14,04,39,17.30
2010,08,14,04,40,17.20
2010,08,14,04,41,17.20
2010,08,14,04,42,17.20
2010,08,14,04,43,17.20
2010,08,14,04,44,17.20
2010,08,14,04,45,17.20
2010,08,14,04,46,17.10
2010,08,14,04,47,17.10
2010,08,14,04,48,17.10
2010,08,14,04,49,17.10
2010,08,14,04,50,17.10
2010,08,14,04,51,17.10
2010,08,14,04,52,17.10
2010,08,14,04,53,17.10
2010,08,14,04,54,17.10
2010,08,14,04,55,17.10
2010,08,14,04,56,17.10
2010,08,14,04,57,17.10
2010,08,14,04,58,17.10
2010,08,14,04,59,17.10
2010,08,14,05,00,17.00
2010,08,14,05,01,17.00
2010,08,14,05,02,17.00
2010,08,14,05,03,17.00
2010,08,14,05,04,17.00
2010,08,14,05,05,16.90
2010,08,14,05,06,16.90
2010,08,14,05,07,16.90
2010,08,14,05,08,16.90
2010,08,14,05,09,16.90
2010,08,14,05,10,16.80
2010,08,14,05,11,16.80
2010,08,14,05,12,16.80
2010,08,14,05,13,16.80
2010,08,14,05,14,16.80
2010,08,14,05,15,16.90
2010,08,14,05,16,16.90
2010,08,14,05,17,16.90
2010,08,14,05,18,16.90
2010,08,14,05,19,16.90
2010,08,14,05,20,16.90
2010,08,14,05,21,16.90
2010,08,14,05,22,16.90
2010,08,14,05,23,16.90
2010,08,14,05,24,16.90
2010,08,14,05,25,16.90
2010,08,14,05,26,16.80
2010,08,14,05,27,16.80
2010,08,14,05,28,16.80
2010,08,14,05,29,16.80
2010,08,14,05,30,16.80
2010,08,14,05,31,16.80
2010,08,14,05,32,16.80
2010,08,14,05,33,16.70
2010,08,14,05,34,16.70
2010,08,14,05,35,16.70
2010,08,14,05,36,16.70
2010,08,14,05,37,16.70
2010,08,14,05,38,16.70
2010,08,14,05,39,16.60
2010,08,14,05,40,16.60
2010,08,14,05,41,16.60
2010,08,14,05,42,16.60
2010,08,14,05,43,16.60
2010,08,14,05,44,16.60
2010,08,14,05,45,16.60
2010,08,14,05,46,16.60
2010,08,14,05,47,16.60
2010,08,14,05,48,16.50
2010,08,14,05,49,16.50
2010,08,14,05,50,16.50
2010,08,14,05,51,16.40
2010,08,14,05,52,16.40
2010,08,14,05,53,16.30
2010,08,14,05,54,16.30
2010,08,14,05,55,16.20
2010,08,14,05,56,16.20
2010,08,14,05,57,16.20
2010,08,14,05,58,16.10
2010,08,14,05,59,16.10
2010,08,14,06,00,16.00
2010,08,14,06,01,16.00
2010,08,14,06,02,15.90
2010,08,14,06,03,15.90
2010,08,14,06,04,15.90
2010,08,14,06,05,15.80
2010,08,14,06,06,15.80
2010,08,14,06,07,15.80
2010,08,14,06,08,15.80
2010,08,14,06,09,15.80
2010,08,14,06,10,15.80
2010,08,14,06,11,15.80
2010,08,14,06,12,15.80
2010,08,14,06,13,15.80
2010,08,14,06,14,15.80
2010,08,14,06,15,15.80
2010,08,14,06,16,15.80
2010,08,14,06,17,15.80
2010,08,14,06,18,15.80
2010,08,14,06,19,15.80
2010,08,14,06,20,15.80
2010,08,14,06,21,15.80
2010,08,14,06,22,15.80
2010,08,14,06,23,15.80
2010,08,14,06,24,15.80
2010,08,14,06,25,15.80
2010,08,14,06,26,15.80
2010,08,14,06,27,15.80
2010,08,14,06,28,15.80
2010,08,14,06,29,15.90
2010,08,14,06,30,15.90
2010,08,14,06,31,15.90
2010,08,14,06,32,15.90
2010,08,14,06,33,15.90
2010,08,14,06,34,15.90
2010,08,14,06,35,16.00
2010,08,14,06,36,16.00
2010,08,14,06,37,16.00
2010,08,14,06,38,16.00
2010,08,14,06,39,16.10
2010,08,14,06,40,16.10
2010,08,14,06,41,16.10
2010,08,14,06,42,16.20
2010,08,14,06,43,16.20
2010,08,14,06,44,16.20
2010,08,14,06,45,16.30
2010,08,14,06,46,16.30
2010,08,14,06,47,16.30
2010,08,14,06,48,16.40
2010,08,14,06,49,16.40
2010,08,14,06,50,16.50
2010,08,14,06,51,16.50
2010,08,14,06,52,16.60
2010,08,14,06,53,16.60
2010,08,14,06,54,16.60
2010,08,14,06,55,16.70
2010,08,14,06,56,16.70
2010,08,14,06,57,16.70
2010,08,14,06,58,16.80
2010,08,14,06,59,16.80
2010,08,14,07,00,16.80
2010,08,14,07,01,16.90
2010,08,14,07,02,16.90
2010,08,14,07,03,17.00
2010,08,14,07,04,17.00
2010,08,14,07,05,17.10
2010,08,14,07,06,17.10
2010,08,14,07,07,17.20
2010,08,14,07,08,17.20
2010,08,14,07,09,17.30
2010,08,14,07,10,17.30
2010,08,14,07,11,17.30
2010,08,14,07,12,17.40
2010,08,14,07,13,17.40
2010,08,14,07,14,17.40
2010,08,14,07,15,17.50
2010,08,14,07,16,17.50
2010,08,14,07,17,17.60
2010,08,14,07,18,17.60
2010,08,14,07,19,17.60
2010,08,14,07,20,17.60
2010,08,14,07,21,17.70
2010,08,14,07,22,17.70
2010,08,14,07,23,17.70
2010,08,14,07,24,17.80
2010,08,14,07,25,17.80
2010,08,14,07,26,17.90
2010,08,14,07,27,17.90
2010,08,14,07,28,17.90
2010,08,14,07,29,18.00
2010,08,14,07,30,18.00
2010,08,14,07,31,18.10
2010,08,14,07,32,18.20
2010,08,14,07,33,18.20
2010,08,14,07,34,18.30
2010,08,14,07,35,18.30
2010,08,14,07,36,18.30
2010,08,14,07,37,18.30
2010,08,14,07,38,18.40
2010,08,14,07,39,18.40
2010,08,14,07,40,18.40
2010,08,14,07,41,18.50
2010,08,14,07,42,18.50
2010,08,14,07,43,18.60
2010,08,14,07,44,18.60
2010,08,14,07,45,18.70
2010,08,14,07,46,18.80
2010,08,14,07,47,18.90
2010,08,14,07,48,18.90
2010,08,14,07,49,19.00
2010,08,14,07,50,19.00
2010,08,14,07,51,19.10
2010,08,14,07,52,19.10
2010,08,14,07,53,19.20
2010,08,14,07,54,19.20
2010,08,14,07,55,19.30
2010,08,14,07,56,19.40
2010,08,14,07,57,19.50
2010,08,14,07,58,19.50
2010,08,14,07,59,19.60
2010,08,14,08,00,19.70
2010,08,14,08,01,19.80
2010,08,14,08,02,19.80
2010,08,14,08,03,19.80
2010,08,14,08,04,19.80
2010,08,14,08,05,19.80
2010,08,14,08,06,19.80
2010,08,14,08,07,19.70
2010,08,14,08,08,19.70
2010,08,14,08,09,19.60
2010,08,14,08,10,19.50
2010,08,14,08,11,19.50
2010,08,14,08,12,19.50
2010,08,14,08,13,19.50
2010,08,14,08,14,19.60
2010,08,14,08,15,19.60
2010,08,14,08,16,19.50
2010,08,14,08,17,19.50
2010,08,14,08,18,19.50
2010,08,14,08,19,19.40
2010,08,14,08,20,19.40
2010,08,14,08,21,19.50
2010,08,14,08,22,19.50
2010,08,14,08,23,19.50
2010,08,14,08,24,19.60
2010,08,14,08,25,19.60
2010,08,14,08,26,19.70
2010,08,14,08,27,19.70
2010,08,14,08,28,19.80
2010,08,14,08,29,19.80
2010,08,14,08,30,19.90
2010,08,14,08,31,20.00
2010,08,14,08,32,20.10
2010,08,14,08,33,20.20
2010,08,14,08,34,20.20
2010,08,14,08,35,20.30
2010,08,14,08,36,20.40
2010,08,14,08,37,20.40
2010,08,14,08,38,20.50
2010,08,14,08,39,20.60
2010,08,14,08,40,20.70
2010,08,14,08,41,20.80
2010,08,14,08,42,20.90
2010,08,14,08,43,21.00
2010,08,14,08,44,21.10
2010,08,14,08,45,21.20
2010,08,14,08,46,21.30
2010,08,14,08,47,21.40
2010,08,14,08,48,21.50
2010,08,14,08,49,21.60
2010,08,14,08,50,21.80
2010,08,14,08,51,21.90
2010,08,14,08,52,22.00
2010,08,14,08,53,22.00
2010,08,14,08,54,22.10
2010,08,14,08,55,22.20
2010,08,14,08,56,22.30
2010,08,14,08,57,22.40
2010,08,14,08,58,22.50
2010,08,14,08,59,22.60
2010,08,14,09,00,22.70
2010,08,14,09,01,22.80
2010,08,14,09,02,23.00
2010,08,14,09,03,23.10
2010,08,14,09,04,23.20
2010,08,14,09,05,23.30
2010,08,14,09,06,23.40
2010,08,14,09,07,23.60
2010,08,14,09,08,23.70
2010,08,14,09,09,23.70
2010,08,14,09,10,23.80
2010,08,14,09,11,23.80
2010,08,14,09,12,23.80
2010,08,14,09,13,23.70
2010,08,14,09,14,23.60
2010,08,14,09,15,23.50
2010,08,14,09,16,23.40
2010,08,14,09,17,23.30
2010,08,14,09,18,23.30
2010,08,14,09,19,23.20
2010,08,14,09,20,23.20
2010,08,14,09,21,23.20
2010,08,14,09,22,23.20
2010,08,14,09,23,23.20
2010,08,14,09,24,23.20
2010,08,14,09,25,23.20
2010,08,14,09,26,23.20
2010,08,14,09,27,23.20
2010,08,14,09,28,23.30
2010,08,14,09,29,23.30
2010,08,14,09,30,23.50
2010,08,14,09,31,23.60
2010,08,14,09,32,23.70
2010,08,14,09,33,23.80
2010,08,14,09,34,23.90
2010,08,14,09,35,24.00
2010,08,14,09,36,24.00
2010,08,14,09,37,24.10
2010,08,14,09,38,24.10
2010,08,14,09,39,24.10
2010,08,14,09,40,24.10
2010,08,14,09,41,24.10
2010,08,14,09,42,24.00
2010,08,14,09,43,24.00
2010,08,14,09,44,24.00
2010,08,14,09,45,24.10
2010,08,14,09,46,24.20
2010,08,14,09,47,24.30
2010,08,14,09,48,24.50
2010,08,14,09,49,24.60
2010,08,14,09,50,24.70
2010,08,14,09,51,24.80
2010,08,14,09,52,24.90
2010,08,14,09,53,25.00
2010,08,14,09,54,25.10
2010,08,14,09,55,25.20
2010,08,14,09,56,25.30
2010,08,14,09,57,25.30
2010,08,14,09,58,25.30
2010,08,14,09,59,25.30
2010,08,14,10,00,25.10
2010,08,14,10,01,25.10
2010,08,14,10,02,25.00
2010,08,14,10,03,24.90
2010,08,14,10,04,24.80
2010,08,14,10,05,24.80
2010,08,14,10,06,24.80
2010,08,14,10,07,24.90
2010,08,14,10,08,25.00
2010,08,14,10,09,25.10
2010,08,14,10,10,25.20
2010,08,14,10,11,25.30
2010,08,14,10,12,25.50
2010,08,14,10,13,25.50
2010,08,14,10,14,25.70
2010,08,14,10,15,25.70
2010,08,14,10,16,25.80
2010,08,14,10,17,25.90
2010,08,14,10,18,25.90
2010,08,14,10,19,25.90
2010,08,14,10,20,26.10
2010,08,14,10,21,26.20
2010,08,14,10,22,26.20
2010,08,14,10,23,26.30
2010,08,14,10,24,26.30
2010,08,14,10,25,26.30
2010,08,14,10,26,26.40
2010,08,14,10,27,26.40
2010,08,14,10,28,26.50
2010,08,14,10,29,26.60
2010,08,14,10,30,26.60
2010,08,14,10,31,26.70
2010,08,14,10,32,26.80
2010,08,14,10,33,26.80
2010,08,14,10,34,26.80
2010,08,14,10,35,26.80
2010,08,14,10,36,26.90
2010,08,14,10,37,26.90
2010,08,14,10,38,27.00
2010,08,14,10,39,27.10
2010,08,14,10,40,27.20
2010,08,14,10,41,27.10
2010,08,14,10,42,27.00
2010,08,14,10,43,26.80
2010,08,14,10,44,26.70
2010,08,14,10,45,26.50
2010,08,14,10,46,26.40
2010,08,14,10,47,26.50
2010,08,14,10,48,26.50
2010,08,14,10,49,26.60
2010,08,14,10,50,26.70
2010,08,14,10,51,26.80
2010,08,14,10,52,26.90
2010,08,14,10,53,27.10
2010,08,14,10,54,27.20
2010,08,14,10,55,27.30
2010,08,14,10,56,27.50
2010,08,14,10,57,27.60
2010,08,14,10,58,27.70
2010,08,14,10,59,27.80
2010,08,14,11,00,27.90
2010,08,14,11,01,27.90
2010,08,14,11,02,27.90
2010,08,14,11,03,27.90
2010,08,14,11,04,27.90
2010,08,14,11,05,27.90
2010,08,14,11,06,28.00
2010,08,14,11,07,28.10
2010,08,14,11,08,28.10
2010,08,14,11,09,28.10
2010,08,14,11,10,28.10
2010,08,14,11,11,28.00
2010,08,14,11,12,27.90
2010,08,14,11,13,27.90
2010,08,14,11,14,27.90
2010,08,14,11,15,28.00
2010,08,14,11,16,28.10
2010,08,14,11,17,28.30
2010,08,14,11,18,28.40
2010,08,14,11,19,28.50
2010,08,14,11,20,28.70
2010,08,14,11,21,28.70
2010,08,14,11,22,28.80
2010,08,14,11,23,28.70
2010,08,14,11,24,28.70
2010,08,14,11,25,28.70
2010,08,14,11,26,28.70
2010,08,14,11,27,28.60
2010,08,14,11,28,28.40
2010,08,14,11,29,28.30
2010,08,14,11,30,28.30
2010,08,14,11,31,28.40
2010,08,14,11,32,28.40
2010,08,14,11,33,28.50
2010,08,14,11,34,28.50
2010,08,14,11,35,28.60
2010,08,14,11,36,28.60
2010,08,14,11,37,28.60
2010,08,14,11,38,28.80
2010,08,14,11,39,28.80
2010,08,14,11,40,28.90
2010,08,14,11,41,28.90
2010,08,14,11,42,28.80
2010,08,14,11,43,28.70
2010,08,14,11,44,28.60
2010,08,14,11,45,28.70
2010,08,14,11,46,28.70
2010,08,14,11,47,28.80
2010,08,14,11,48,29.00
2010,08,14,11,49,29.10
2010,08,14,11,50,29.30
2010,08,14,11,51,29.40
2010,08,14,11,52,29.50
2010,08,14,11,53,29.60
2010,08,14,11,54,29.70
2010,08,14,11,55,29.60
2010,08,14,11,56,29.50
2010,08,14,11,57,29.40
2010,08,14,11,58,29.30
2010,08,14,11,59,29.30
2010,08,14,12,00,29.30
2010,08,14,12,01,29.40
2010,08,14,12,02,29.40
2010,08,14,12,03,29.40
2010,08,14,12,04,29.50
2010,08,14,12,05,29.60
2010,08,14,12,06,29.70
2010,08,14,12,07,29.80
2010,08,14,12,08,29.80
2010,08,14,12,09,29.80
2010,08,14,12,10,29.90
2010,08,14,12,11,30.00
2010,08,14,12,12,30.00
2010,08,14,12,13,30.10
2010,08,14,12,14,30.00
2010,08,14,12,15,29.90
2010,08,14,12,16,29.90
2010,08,14,12,17,30.00
2010,08,14,12,18,30.00
2010,08,14,12,19,29.90
2010,08,14,12,20,29.90
2010,08,14,12,21,29.90
2010,08,14,12,22,29.90
2010,08,14,12,23,30.00
2010,08,14,12,24,30.00
2010,08,14,12,25,30.10
2010,08,14,12,26,30.10
2010,08,14,12,27,29.90
2010,08,14,12,28,29.80
2010,08,14,12,29,29.80
2010,08,14,12,30,29.70
2010,08,14,12,31,29.70
2010,08,14,12,32,29.70
2010,08,14,12,33,29.70
2010,08,14,12,34,29.70
2010,08,14,12,35,29.70
2010,08,14,12,36,29.60
2010,08,14,12,37,29.50
2010,08,14,12,38,29.40
2010,08,14,12,39,29.40
2010,08,14,12,40,29.40
2010,08,14,12,41,29.50
2010,08,14,12,42,29.50
2010,08,14,12,43,29.50
2010,08,14,12,44,29.50
2010,08,14,12,45,29.50
2010,08,14,12,46,29.60
2010,08,14,12,47,29.60
2010,08,14,12,48,29.60
2010,08,14,12,49,29.60
2010,08,14,12,50,29.70
2010,08,14,12,51,29.70
2010,08,14,12,52,29.70
2010,08,14,12,53,29.80
2010,08,14,12,54,29.80
2010,08,14,12,55,29.80
2010,08,14,12,56,29.90
2010,08,14,12,57,30.00
2010,08,14,12,58,30.10
2010,08,14,12,59,30.20
2010,08,14,13,00,30.10
2010,08,14,13,01,30.00
2010,08,14,13,02,29.90
2010,08,14,13,03,29.80
2010,08,14,13,04,29.70
2010,08,14,13,05,29.60
2010,08,14,13,06,29.60
2010,08,14,13,07,29.70
2010,08,14,13,08,29.70
2010,08,14,13,09,29.80
2010,08,14,13,10,29.80
2010,08,14,13,11,29.80
2010,08,14,13,12,29.70
2010,08,14,13,13,29.70
2010,08,14,13,14,29.70
2010,08,14,13,15,29.70
2010,08,14,13,16,29.60
2010,08,14,13,17,29.60
2010,08,14,13,18,29.60
2010,08,14,13,19,29.70
2010,08,14,13,20,29.70
2010,08,14,13,21,29.80
2010,08,14,13,22,29.80
2010,08,14,13,23,29.90
2010,08,14,13,24,29.90
2010,08,14,13,25,29.80
2010,08,14,13,26,29.80
2010,08,14,13,27,29.80
2010,08,14,13,28,29.90
2010,08,14,13,29,30.10
2010,08,14,13,30,30.20
2010,08,14,13,31,30.30
2010,08,14,13,32,30.30
2010,08,14,13,33,30.30
2010,08,14,13,34,30.30
2010,08,14,13,35,30.40
2010,08,14,13,36,30.40
2010,08,14,13,37,30.40
2010,08,14,13,38,30.40
2010,08,14,13,39,30.40
2010,08,14,13,40,30.40
2010,08,14,13,41,30.40
2010,08,14,13,42,30.40
2010,08,14,13,43,30.40
2010,08,14,13,44,30.40
2010,08,14,13,45,30.30
2010,08,14,13,46,30.30
2010,08,14,13,47,30.20
2010,08,14,13,48,30.20
2010,08,14,13,49,30.20
2010,08,14,13,50,30.20
2010,08,14,13,51,30.30
2010,08,14,13,52,30.30
2010,08,14,13,53,30.30
2010,08,14,13,54,30.30
2010,08,14,13,55,30.40
2010,08,14,13,56,30.40
2010,08,14,13,57,30.40
2010,08,14,13,58,30.40
2010,08,14,13,59,30.40
2010,08,14,14,00,30.40
2010,08,14,14,01,30.40
2010,08,14,14,02,30.40
2010,08,14,14,03,30.50
2010,08,14,14,04,30.60
2010,08,14,14,05,30.60
2010,08,14,14,06,30.70
2010,08,14,14,07,30.80
2010,08,14,14,08,30.90
2010,08,14,14,09,31.10
2010,08,14,14,10,31.10
2010,08,14,14,11,31.10
2010,08,14,14,12,31.10
2010,08,14,14,13,31.10
2010,08,14,14,14,31.10
2010,08,14,14,15,30.90
2010,08,14,14,16,30.80
2010,08,14,14,17,30.80
2010,08,14,14,18,30.70
2010,08,14,14,19,30.70
2010,08,14,14,20,30.70
2010,08,14,14,21,30.80
2010,08,14,14,22,30.80
2010,08,14,14,23,30.80
2010,08,14,14,24,30.70
2010,08,14,14,25,30.70
2010,08,14,14,26,30.80
2010,08,14,14,27,30.90
2010,08,14,14,28,30.90
2010,08,14,14,29,31.00
2010,08,14,14,30,31.00
2010,08,14,14,31,31.10
2010,08,14,14,32,31.20
2010,08,14,14,33,31.20
2010,08,14,14,34,31.20
2010,08,14,14,35,31.20
2010,08,14,14,36,31.20
2010,08,14,14,37,31.10
2010,08,14,14,38,31.00
2010,08,14,14,39,31.00
2010,08,14,14,40,30.90
2010,08,14,14,41,30.90
2010,08,14,14,42,30.90
2010,08,14,14,43,30.90
2010,08,14,14,44,30.90
2010,08,14,14,45,30.80
2010,08,14,14,46,30.80
2010,08,14,14,47,30.80
2010,08,14,14,48,30.90
2010,08,14,14,49,30.90
2010,08,14,14,50,31.00
2010,08,14,14,51,31.10
2010,08,14,14,52,31.20
2010,08,14,14,53,31.20
2010,08,14,14,54,31.20
2010,08,14,14,55,31.30
2010,08,14,14,56,31.30
2010,08,14,14,57,31.40
2010,08,14,14,58,31.40
2010,08,14,14,59,31.40
2010,08,14,15,00,31.30
2010,08,14,15,01,31.30
2010,08,14,15,02,31.30
2010,08,14,15,03,31.30
2010,08,14,15,04,31.40
2010,08,14,15,05,31.40
2010,08,14,15,06,31.50
2010,08,14,15,07,31.50
2010,08,14,15,08,31.60
2010,08,14,15,09,31.60
2010,08,14,15,10,31.60
2010,08,14,15,11,31.60
2010,08,14,15,12,31.60
2010,08,14,15,13,31.70
2010,08,14,15,14,31.60
2010,08,14,15,15,31.40
2010,08,14,15,16,31.30
2010,08,14,15,17,31.30
2010,08,14,15,18,31.30
2010,08,14,15,19,31.30
2010,08,14,15,20,31.30
2010,08,14,15,21,31.30
2010,08,14,15,22,31.30
2010,08,14,15,23,31.20
2010,08,14,15,24,31.20
2010,08,14,15,25,31.30
2010,08,14,15,26,31.30
2010,08,14,15,27,31.30
2010,08,14,15,28,31.40
2010,08,14,15,29,31.40
2010,08,14,15,30,31.40
2010,08,14,15,31,31.50
2010,08,14,15,32,31.50
2010,08,14,15,33,31.60
2010,08,14,15,34,31.60
2010,08,14,15,35,31.50
2010,08,14,15,36,31.40
2010,08,14,15,37,31.30
2010,08,14,15,38,31.20
2010,08,14,15,39,31.20
2010,08,14,15,40,31.20
2010,08,14,15,41,31.30
2010,08,14,15,42,31.30
2010,08,14,15,43,31.40
2010,08,14,15,44,31.50
2010,08,14,15,45,31.60
2010,08,14,15,46,31.60
2010,08,14,15,47,31.60
2010,08,14,15,48,31.70
2010,08,14,15,49,31.80
2010,08,14,15,50,31.80
2010,08,14,15,51,31.80
2010,08,14,15,52,31.90
2010,08,14,15,53,31.90
2010,08,14,15,54,32.00
2010,08,14,15,55,32.10
2010,08,14,15,56,32.20
2010,08,14,15,57,32.30
2010,08,14,15,58,32.30
2010,08,14,15,59,32.30
2010,08,14,16,00,32.40
2010,08,14,16,01,32.40
2010,08,14,16,02,32.40
2010,08,14,16,03,32.40
2010,08,14,16,04,32.40
2010,08,14,16,05,32.40
2010,08,14,16,06,32.30
2010,08,14,16,07,32.30
2010,08,14,16,08,32.30
2010,08,14,16,09,32.30
2010,08,14,16,10,32.30
2010,08,14,16,11,32.40
2010,08,14,16,12,32.40
2010,08,14,16,13,32.40
2010,08,14,16,14,32.50
2010,08,14,16,15,32.50
2010,08,14,16,16,32.50
2010,08,14,16,17,32.50
2010,08,14,16,18,32.50
2010,08,14,16,19,32.60
2010,08,14,16,20,32.60
2010,08,14,16,21,32.60
2010,08,14,16,22,32.70
2010,08,14,16,23,32.80
2010,08,14,16,24,32.80
2010,08,14,16,25,32.90
2010,08,14,16,26,33.00
2010,08,14,16,27,33.10
2010,08,14,16,28,33.10
2010,08,14,16,29,33.10
2010,08,14,16,30,33.00
2010,08,14,16,31,33.00
2010,08,14,16,32,32.90
2010,08,14,16,33,32.80
2010,08,14,16,34,32.70
2010,08,14,16,35,32.60
2010,08,14,16,36,32.60
2010,08,14,16,37,32.50
2010,08,14,16,38,32.50
2010,08,14,16,39,32.50
2010,08,14,16,40,32.50
2010,08,14,16,41,32.50
2010,08,14,16,42,32.50
2010,08,14,16,43,32.60
2010,08,14,16,44,32.60
2010,08,14,16,45,32.70
2010,08,14,16,46,32.70
2010,08,14,16,47,32.80
2010,08,14,16,48,32.80
2010,08,14,16,49,32.80
2010,08,14,16,50,32.80
2010,08,14,16,51,32.80
2010,08,14,16,52,32.80
2010,08,14,16,53,32.90
2010,08,14,16,54,32.90
2010,08,14,16,55,32.80
2010,08,14,16,56,32.80
2010,08,14,16,57,32.70
2010,08,14,16,58,32.60
2010,08,14,16,59,32.60
2010,08,14,17,00,32.60
2010,08,14,17,01,32.60
2010,08,14,17,02,32.60
2010,08,14,17,03,32.70
2010,08,14,17,04,32.70
2010,08,14,17,05,32.70
2010,08,14,17,06,32.80
2010,08,14,17,07,32.90
2010,08,14,17,08,32.90
2010,08,14,17,09,32.90
2010,08,14,17,10,32.90
2010,08,14,17,11,32.90
2010,08,14,17,12,32.90
2010,08,14,17,13,32.80
2010,08,14,17,14,32.80
2010,08,14,17,15,32.80
2010,08,14,17,16,32.80
2010,08,14,17,17,32.90
2010,08,14,17,18,32.90
2010,08,14,17,19,32.80
2010,08,14,17,20,32.80
2010,08,14,17,21,32.70
2010,08,14,17,22,32.50